Time,TemperatureF,DewpointF,PressureIn,WindDirection,WindDirectionDegrees,WindSpeedMPH,WindSpeedGustMPH,Humidity,HourlyPrecipIn,Conditions,Clouds,dailyrainin,SoftwareType,DateUTC
2013-09-09 00:00:00,46.0,32.9,30.25,NNW,346,0.0,0.0,60,0.00,BKN,BKN,0.00,WeatherDisplay:10.34,2013-09-09 04:00:00,
2013-09-09 00:01:00,46.0,32.9,30.25,NNW,346,0.0,0.0,60,0.00,BKN,BKN,0.00,WeatherDisplay:10.34,2013-09-09 04:01:00,
2013-09-09 00:02:00,46.0,32.9,30.25,NNW,346,0.0,0.0,60,0.00,BKN,BKN,0.00,WeatherDisplay:10.34,2013-09-09 04:02:00,
2013-09-09 00:04:00,46.0,33.3,30.25,NNW,346,0.0,0.0,61,0.00,CLR,CLR,0.00,WeatherDisplay:10.34,2013-09-09 04:04:00,
2013-09-09 00:06:00,46.0,33.3,30.25,NNW,346,0.0,0.0,61,0.00,CLR,CLR,0.00,WeatherDisplay:10.34,2013-09-09 04:06:00,
2013-09-09 00:10:00,46.0,33.3,30.25,NNW,346,0.0,0.0,61,0.00,CLR,CLR,0.00,WeatherDisplay:10.34,2013-09-09 04:10:00,
2013-09-09 00:15:00,45.9,33.2,30.25,NNW,346,0.0,0.0,61,0.00,CLR,CLR,0.00,WeatherDisplay:10.34,2013-09-09 04:15:00,
2013-09-09 00:20:00,45.5,32.4,30.25,NNW,346,0.0,0.0,60,0.00,CLR,CLR,0.00,WeatherDisplay:10.34,2013-09-09 04:20:00,
2013-09-09 00:21:00,45.5,32.8,30.25,NNW,346,0.0,0.0,61,0.00,CLR,CLR,0.00,WeatherDisplay:10.34,2013-09-09 04:21:00,
2013-09-09 00:26:00,45.3,33.1,30.25,NNW,346,0.0,0.0,62,0.00,CLR,CLR,0.00,WeatherDisplay:10.34,2013-09-09 04:26:00,
2013-09-09 00:31:00,45.3,33.5,30.25,NNW,346,0.0,0.0,63,0.00,CLR,CLR,0.00,WeatherDisplay:10.34,2013-09-09 04:31:00,
2013-09-09 00:36:00,45.3,33.5,30.25,NNW,346,0.0,0.0,63,0.00,CLR,CLR,0.00,WeatherDisplay:10.34,2013-09-09 04:36:00,
2013-09-09 00:41:00,45.5,33.6,30.25,NNW,346,0.0,0.0,63,0.00,CLR,CLR,0.00,WeatherDisplay:10.34,2013-09-09 04:41:00,
2013-09-09 00:46:00,45.1,33.3,30.25,NNW,346,0.0,0.0,63,0.00,CLR,CLR,0.00,WeatherDisplay:10.34,2013-09-09 04:46:00,
2013-09-09 00:51:00,45.3,34.2,30.25,NNW,346,0.0,0.0,65,0.00,CLR,CLR,0.00,WeatherDisplay:10.34,2013-09-09 04:51:00,
2013-09-09 00:56:00,45.3,34.6,30.25,NNW,346,0.0,0.0,66,0.00,CLR,CLR,0.00,WeatherDisplay:10.34,2013-09-09 04:56:00,
2013-09-09 01:01:00,45.3,34.6,30.25,NNW,346,0.0,0.0,66,0.00,CLR,CLR,0.00,WeatherDisplay:10.34,2013-09-09 05:01:00,
2013-09-09 01:06:00,45.3,35.0,30.25,NNW,346,0.0,0.0,67,0.00,CLR,CLR,0.00,WeatherDisplay:10.34,2013-09-09 05:06:00,
2013-09-09 01:11:00,45.3,35.0,30.25,NNW,346,0.0,0.0,67,0.00,CLR,CLR,0.00,WeatherDisplay:10.34,2013-09-09 05:11:00,
2013-09-09 01:16:00,45.3,35.4,30.28,NNW,346,0.0,0.0,68,0.00,CLR,CLR,0.00,WeatherDisplay:10.34,2013-09-09 05:16:00,
2013-09-09 01:21:00,45.3,35.4,30.28,NNW,346,0.0,0.0,68,0.00,CLR,CLR,0.00,WeatherDisplay:10.34,2013-09-09 05:21:00,
2013-09-09 01:26:00,45.3,35.4,30.28,NNW,346,0.0,0.0,68,0.00,CLR,CLR,0.00,WeatherDisplay:10.34,2013-09-09 05:26:00,
2013-09-09 01:31:00,45.3,35.4,30.28,NNW,346,0.0,0.0,68,0.00,CLR,CLR,0.00,WeatherDisplay:10.34,2013-09-09 05:31:00,
2013-09-09 01:36:00,45.3,35.4,30.28,NNW,346,0.0,0.0,68,0.00,CLR,CLR,0.00,WeatherDisplay:10.34,2013-09-09 05:36:00,
2013-09-09 01:41:00,45.1,35.6,30.28,NNW,346,0.0,0.0,69,0.00,CLR,CLR,0.00,WeatherDisplay:10.34,2013-09-09 05:41:00,
2013-09-09 01:46:00,45.0,35.4,30.28,NNW,346,0.0,0.0,69,0.00,CLR,CLR,0.00,WeatherDisplay:10.34,2013-09-09 05:46:00,
2013-09-09 01:51:00,45.0,35.8,30.28,NNW,346,0.0,0.0,70,0.00,CLR,CLR,0.00,WeatherDisplay:10.34,2013-09-09 05:51:00,
2013-09-09 01:56:00,45.0,35.8,30.28,NNW,346,0.0,0.0,70,0.00,CLR,CLR,0.00,WeatherDisplay:10.34,2013-09-09 05:56:00,
2013-09-09 02:01:00,44.8,35.6,30.28,NNW,346,0.0,0.0,70,0.00,CLR,CLR,0.00,WeatherDisplay:10.34,2013-09-09 06:01:00,
2013-09-09 02:06:00,44.8,35.6,30.28,NNW,346,0.0,0.0,70,0.00,CLR,CLR,0.00,WeatherDisplay:10.34,2013-09-09 06:06:00,
2013-09-09 02:11:00,44.8,35.9,30.28,NNW,346,0.0,0.0,71,0.00,CLR,CLR,0.00,WeatherDisplay:10.34,2013-09-09 06:11:00,
2013-09-09 02:16:00,45.0,36.1,30.28,NNW,346,0.0,0.0,71,0.00,CLR,CLR,0.00,WeatherDisplay:10.34,2013-09-09 06:16:00,
2013-09-09 02:21:00,45.0,36.1,30.28,NNW,346,0.0,0.0,71,0.00,CLR,CLR,0.00,WeatherDisplay:10.34,2013-09-09 06:21:00,
2013-09-09 02:26:00,45.0,35.8,30.28,NNW,346,0.0,0.0,70,0.00,CLR,CLR,0.00,WeatherDisplay:10.34,2013-09-09 06:26:00,
2013-09-09 02:31:00,45.0,35.8,30.28,NNW,346,0.0,2.0,70,0.00,CLR,CLR,0.00,WeatherDisplay:10.34,2013-09-09 06:31:00,
2013-09-09 02:36:00,44.8,35.2,30.28,NNW,346,0.0,0.0,69,0.00,CLR,CLR,0.00,WeatherDisplay:10.34,2013-09-09 06:36:00,
2013-09-09 02:41:00,44.6,35.1,30.28,NNW,346,0.0,0.0,69,0.00,CLR,CLR,0.00,WeatherDisplay:10.34,2013-09-09 06:41:00,
2013-09-09 02:46:00,44.6,35.4,30.28,NNW,346,0.0,0.0,70,0.00,CLR,CLR,0.00,WeatherDisplay:10.34,2013-09-09 06:46:00,
2013-09-09 02:51:00,44.6,35.4,30.29,NNW,346,0.0,0.0,70,0.00,CLR,CLR,0.00,WeatherDisplay:10.34,2013-09-09 06:51:00,
2013-09-09 02:56:00,44.6,35.8,30.29,NNW,346,0.0,0.0,71,0.00,CLR,CLR,0.00,WeatherDisplay:10.34,2013-09-09 06:56:00,
2013-09-09 03:01:00,44.6,35.8,30.29,NNW,346,0.0,0.0,71,0.00,CLR,CLR,0.00,WeatherDisplay:10.34,2013-09-09 07:01:00,
2013-09-09 03:06:00,44.6,35.8,30.29,NNW,346,0.0,0.0,71,0.00,CLR,CLR,0.00,WeatherDisplay:10.34,2013-09-09 07:06:00,
2013-09-09 03:11:00,44.4,35.6,30.29,NNW,346,0.0,0.0,71,0.00,CLR,CLR,0.00,WeatherDisplay:10.34,2013-09-09 07:11:00,
2013-09-09 03:16:00,44.4,35.6,30.29,NNW,346,0.0,0.0,71,0.00,CLR,CLR,0.00,WeatherDisplay:10.34,2013-09-09 07:16:00,
2013-09-09 03:21:00,44.2,35.4,30.29,NNW,346,0.0,0.0,71,0.00,CLR,CLR,0.00,WeatherDisplay:10.34,2013-09-09 07:21:00,
2013-09-09 03:26:00,44.2,35.4,30.29,NNW,346,0.0,0.0,71,0.00,CLR,CLR,0.00,WeatherDisplay:10.34,2013-09-09 07:26:00,
2013-09-09 03:31:00,44.2,35.4,30.29,NNW,346,0.0,0.0,71,0.00,CLR,CLR,0.00,WeatherDisplay:10.34,2013-09-09 07:31:00,
2013-09-09 03:36:00,44.4,36.0,30.29,NNW,346,0.0,0.0,72,0.00,CLR,CLR,0.00,WeatherDisplay:10.34,2013-09-09 07:36:00,
2013-09-09 03:41:00,44.4,35.6,30.29,NNW,346,0.0,0.0,71,0.00,CLR,CLR,0.00,WeatherDisplay:10.34,2013-09-09 07:41:00,
2013-09-09 03:46:00,44.2,35.4,30.29,NNW,346,0.0,0.0,71,0.00,CLR,CLR,0.00,WeatherDisplay:10.34,2013-09-09 07:46:00,
2013-09-09 03:51:00,44.1,35.3,30.29,NNW,346,0.0,0.0,71,0.00,CLR,CLR,0.00,WeatherDisplay:10.34,2013-09-09 07:51:00,
2013-09-09 03:56:00,43.9,35.1,30.29,NNW,346,0.0,0.0,71,0.00,CLR,CLR,0.00,WeatherDisplay:10.34,2013-09-09 07:56:00,
2013-09-09 04:01:00,43.9,35.4,30.29,NNW,346,0.0,0.0,72,0.00,CLR,CLR,0.00,WeatherDisplay:10.34,2013-09-09 08:01:00,
2013-09-09 04:06:00,44.1,35.6,30.29,NNW,346,0.0,0.0,72,0.00,CLR,CLR,0.00,WeatherDisplay:10.34,2013-09-09 08:06:00,
2013-09-09 04:11:00,43.9,35.4,30.29,NNW,346,0.0,0.0,72,0.00,CLR,CLR,0.00,WeatherDisplay:10.34,2013-09-09 08:11:00,
2013-09-09 04:16:00,43.7,35.3,30.29,NNW,346,0.0,0.0,72,0.00,CLR,CLR,0.00,WeatherDisplay:10.34,2013-09-09 08:16:00,
2013-09-09 04:21:00,43.9,35.4,30.29,NNW,346,0.0,0.0,72,0.00,CLR,CLR,0.00,WeatherDisplay:10.34,2013-09-09 08:21:00,
2013-09-09 04:26:00,43.5,34.7,30.29,NNW,346,0.0,0.0,71,0.00,CLR,CLR,0.00,WeatherDisplay:10.34,2013-09-09 08:26:00,
2013-09-09 04:31:00,43.5,35.1,30.32,NNW,346,0.0,0.0,72,0.00,CLR,CLR,0.00,WeatherDisplay:10.34,2013-09-09 08:31:00,
2013-09-09 04:36:00,43.3,35.3,30.32,NNW,346,0.0,0.0,73,0.00,CLR,CLR,0.00,WeatherDisplay:10.34,2013-09-09 08:36:00,
2013-09-09 04:41:00,43.3,35.3,30.32,NNW,346,0.0,0.0,73,0.00,CLR,CLR,0.00,WeatherDisplay:10.34,2013-09-09 08:41:00,
2013-09-09 04:46:00,43.2,35.1,30.32,NNW,346,0.0,0.0,73,0.00,CLR,CLR,0.00,WeatherDisplay:10.34,2013-09-09 08:46:00,
2013-09-09 04:51:00,43.2,35.4,30.32,NNW,346,0.0,0.0,74,0.00,CLR,CLR,0.00,WeatherDisplay:10.34,2013-09-09 08:51:00,
2013-09-09 04:56:00,43.2,35.1,30.32,NNW,346,0.0,0.0,73,0.00,CLR,CLR,0.00,WeatherDisplay:10.34,2013-09-09 08:56:00,
2013-09-09 05:01:00,43.5,35.8,30.32,NNW,346,0.0,0.0,74,0.00,CLR,CLR,0.00,WeatherDisplay:10.34,2013-09-09 09:01:00,
2013-09-09 05:06:00,43.7,36.0,30.32,NNW,346,0.0,0.0,74,0.00,CLR,CLR,0.00,WeatherDisplay:10.34,2013-09-09 09:06:00,
2013-09-09 05:11:00,43.9,36.1,30.32,NNW,346,0.0,0.0,74,0.00,CLR,CLR,0.00,WeatherDisplay:10.34,2013-09-09 09:11:00,
2013-09-09 05:16:00,43.9,36.1,30.32,NNW,346,0.0,0.0,74,0.00,CLR,CLR,0.00,WeatherDisplay:10.34,2013-09-09 09:16:00,
2013-09-09 05:21:00,44.1,36.3,30.32,NNW,346,0.0,0.0,74,0.00,CLR,CLR,0.00,WeatherDisplay:10.34,2013-09-09 09:21:00,
2013-09-09 05:26:00,44.1,36.6,30.32,WNW,292,0.0,3.0,75,0.00,CLR,CLR,0.00,WeatherDisplay:10.34,2013-09-09 09:26:00,
2013-09-09 05:31:00,44.1,36.6,30.32,West,279,0.0,2.0,75,0.00,CLR,CLR,0.00,WeatherDisplay:10.34,2013-09-09 09:31:00,
2013-09-09 05:36:00,44.2,36.8,30.32,West,279,0.0,3.0,75,0.00,CLR,CLR,0.00,WeatherDisplay:10.34,2013-09-09 09:36:00,
2013-09-09 05:41:00,44.2,36.8,30.32,WNW,287,0.0,5.0,75,0.00,CLR,CLR,0.00,WeatherDisplay:10.34,2013-09-09 09:41:00,
2013-09-09 05:46:00,44.4,37.3,30.32,WNW,288,0.0,0.0,76,0.00,CLR,CLR,0.00,WeatherDisplay:10.34,2013-09-09 09:46:00,
2013-09-09 05:51:00,44.6,37.5,30.32,WNW,288,0.0,0.0,76,0.00,CLR,CLR,0.00,WeatherDisplay:10.34,2013-09-09 09:51:00,
2013-09-09 05:56:00,44.4,37.3,30.32,WNW,287,0.0,5.0,76,0.00,CLR,CLR,0.00,WeatherDisplay:10.34,2013-09-09 09:56:00,
2013-09-09 06:01:00,44.1,36.6,30.32,WNW,287,0.0,0.0,75,0.00,CLR,CLR,0.00,WeatherDisplay:10.34,2013-09-09 10:01:00,
2013-09-09 06:06:00,44.1,37.0,30.32,WNW,287,0.0,0.0,76,0.00,CLR,CLR,0.00,WeatherDisplay:10.34,2013-09-09 10:06:00,
2013-09-09 06:11:00,44.1,37.3,30.32,WNW,287,0.0,0.0,77,0.00,CLR,CLR,0.00,WeatherDisplay:10.34,2013-09-09 10:11:00,
2013-09-09 06:16:00,43.9,37.1,30.32,WNW,287,0.0,0.0,77,0.00,CLR,CLR,0.00,WeatherDisplay:10.34,2013-09-09 10:16:00,
2013-09-09 06:21:00,43.7,37.0,30.32,WNW,287,0.0,0.0,77,0.00,CLR,CLR,0.00,WeatherDisplay:10.34,2013-09-09 10:21:00,
2013-09-09 06:26:00,43.7,37.0,30.32,WNW,287,0.0,0.0,77,0.00,CLR,CLR,0.00,WeatherDisplay:10.34,2013-09-09 10:26:00,
2013-09-09 06:31:00,43.9,37.1,30.35,WNW,287,0.0,3.0,77,0.00,CLR,CLR,0.00,WeatherDisplay:10.34,2013-09-09 10:31:00,
2013-09-09 06:36:00,43.7,37.0,30.35,WNW,287,0.0,0.0,77,0.00,CLR,CLR,0.00,WeatherDisplay:10.34,2013-09-09 10:36:00,
2013-09-09 06:41:00,43.7,37.3,30.35,WNW,287,0.0,2.0,78,0.00,CLR,CLR,0.00,WeatherDisplay:10.34,2013-09-09 10:41:00,
2013-09-09 06:46:00,43.9,37.5,30.35,WNW,287,0.0,3.0,78,0.00,CLR,CLR,0.00,WeatherDisplay:10.34,2013-09-09 10:46:00,
2013-09-09 06:51:00,44.2,38.1,30.35,West,273,0.0,2.0,79,0.00,CLR,CLR,0.00,WeatherDisplay:10.34,2013-09-09 10:51:00,
2013-09-09 06:56:00,44.1,37.6,30.35,West,273,0.0,0.0,78,0.00,CLR,CLR,0.00,WeatherDisplay:10.34,2013-09-09 10:56:00,
2013-09-09 07:01:00,44.2,37.8,30.35,West,269,0.0,0.0,78,0.00,CLR,CLR,0.00,WeatherDisplay:10.34,2013-09-09 11:01:00,
2013-09-09 07:06:00,44.4,38.0,30.35,West,268,0.0,3.0,78,0.00,CLR,CLR,0.00,WeatherDisplay:10.34,2013-09-09 11:06:00,
2013-09-09 07:11:00,44.8,38.7,30.35,West,269,0.0,0.0,79,0.00,CLR,CLR,0.00,WeatherDisplay:10.34,2013-09-09 11:11:00,
2013-09-09 07:16:00,44.8,38.7,30.35,West,268,0.0,0.0,79,0.00,CLR,CLR,0.00,WeatherDisplay:10.34,2013-09-09 11:16:00,
2013-09-09 07:21:00,45.0,38.8,30.35,West,269,0.0,3.0,79,0.00,CLR,CLR,0.00,WeatherDisplay:10.34,2013-09-09 11:21:00,
2013-09-09 07:26:00,45.1,39.0,30.35,West,279,0.0,3.0,79,0.00,CLR,CLR,0.00,WeatherDisplay:10.34,2013-09-09 11:26:00,
2013-09-09 07:31:00,45.3,38.9,30.38,West,262,0.0,5.0,78,0.00,CLR,CLR,0.00,WeatherDisplay:10.34,2013-09-09 11:31:00,
2013-09-09 07:36:00,45.7,38.9,30.39,WNW,283,3.0,6.0,77,0.00,CLR,CLR,0.00,WeatherDisplay:10.34,2013-09-09 11:36:00,
2013-09-09 07:41:00,46.2,39.1,30.39,WSW,239,3.0,6.0,76,0.00,CLR,CLR,0.00,WeatherDisplay:10.34,2013-09-09 11:41:00,
2013-09-09 07:46:00,46.6,39.1,30.39,WNW,283,4.0,6.0,75,0.00,CLR,CLR,0.00,WeatherDisplay:10.34,2013-09-09 11:46:00,
2013-09-09 07:51:00,46.9,39.4,30.39,West,266,3.0,3.0,75,0.00,CLR,CLR,0.00,WeatherDisplay:10.34,2013-09-09 11:51:00,
2013-09-09 07:56:00,47.3,39.1,30.38,NNE,16,3.0,7.0,73,0.00,CLR,CLR,0.00,WeatherDisplay:10.34,2013-09-09 11:56:00,
2013-09-09 08:01:00,47.5,38.5,30.38,WSW,258,3.0,8.0,71,0.00,CLR,CLR,0.00,WeatherDisplay:10.34,2013-09-09 12:01:00,
2013-09-09 08:06:00,47.8,38.9,30.38,ENE,71,4.0,7.0,71,0.00,CLR,CLR,0.00,WeatherDisplay:10.34,2013-09-09 12:06:00,
2013-09-09 08:11:00,48.0,38.7,30.38,NE,55,3.0,3.0,70,0.00,CLR,CLR,0.00,WeatherDisplay:10.34,2013-09-09 12:11:00,
2013-09-09 08:16:00,48.2,38.9,30.38,WSW,249,0.0,3.0,70,0.00,CLR,CLR,0.00,WeatherDisplay:10.34,2013-09-09 12:16:00,
2013-09-09 08:21:00,48.4,38.7,30.38,WSW,239,4.0,6.0,69,0.00,CLR,CLR,0.00,WeatherDisplay:10.34,2013-09-09 12:21:00,
2013-09-09 08:26:00,48.6,38.8,30.38,SW,214,3.0,6.0,69,0.00,CLR,CLR,0.00,WeatherDisplay:10.34,2013-09-09 12:26:00,
2013-09-09 08:31:00,48.6,38.5,30.38,NW,305,3.0,5.0,68,0.00,CLR,CLR,0.00,WeatherDisplay:10.34,2013-09-09 12:31:00,
2013-09-09 08:36:00,48.7,37.5,30.38,SW,233,4.0,6.0,65,0.00,CLR,CLR,0.00,WeatherDisplay:10.34,2013-09-09 12:36:00,
2013-09-09 08:41:00,48.9,37.3,30.38,NNW,336,4.0,6.0,64,0.00,CLR,CLR,0.00,WeatherDisplay:10.34,2013-09-09 12:41:00,
2013-09-09 08:46:00,49.1,36.6,30.38,WSW,240,4.0,8.0,62,0.00,CLR,CLR,0.00,WeatherDisplay:10.34,2013-09-09 12:46:00,
2013-09-09 08:51:00,49.5,36.6,30.38,North,9,0.0,3.0,61,0.00,CLR,CLR,0.00,WeatherDisplay:10.34,2013-09-09 12:51:00,
2013-09-09 08:56:00,49.6,36.3,30.38,ENE,63,4.0,7.0,60,0.00,CLR,CLR,0.00,WeatherDisplay:10.34,2013-09-09 12:56:00,
2013-09-09 09:01:00,49.8,35.6,30.38,North,351,0.0,2.0,58,0.00,CLR,CLR,0.00,WeatherDisplay:10.34,2013-09-09 13:01:00,
2013-09-09 09:06:00,50.0,35.8,30.38,NNE,30,4.0,7.0,58,0.00,CLR,CLR,0.00,WeatherDisplay:10.34,2013-09-09 13:06:00,
2013-09-09 09:11:00,50.2,35.5,30.38,NW,325,4.0,6.0,57,0.00,CLR,CLR,0.00,WeatherDisplay:10.34,2013-09-09 13:11:00,
2013-09-09 09:16:00,50.4,35.2,30.38,SW,236,5.0,8.0,56,0.00,CLR,CLR,0.00,WeatherDisplay:10.34,2013-09-09 13:16:00,
2013-09-09 09:21:00,50.7,35.1,30.38,WSW,244,4.0,6.0,55,0.00,CLR,CLR,0.00,WeatherDisplay:10.34,2013-09-09 13:21:00,
2013-09-09 09:26:00,50.9,35.3,30.38,SSW,208,4.0,7.0,55,0.00,CLR,CLR,0.00,WeatherDisplay:10.34,2013-09-09 13:26:00,
2013-09-09 09:31:00,51.3,35.2,30.38,SW,231,4.0,6.0,54,0.00,CLR,CLR,0.00,WeatherDisplay:10.34,2013-09-09 13:31:00,
2013-09-09 09:36:00,51.3,33.7,30.38,ENE,65,6.0,7.0,51,0.00,CLR,CLR,0.00,WeatherDisplay:10.34,2013-09-09 13:36:00,
2013-09-09 09:41:00,51.4,33.9,30.38,SSE,155,5.0,7.0,51,0.00,CLR,CLR,0.00,WeatherDisplay:10.34,2013-09-09 13:41:00,
2013-09-09 09:46:00,51.6,33.6,30.38,ENE,76,4.0,6.0,50,0.00,CLR,CLR,0.00,WeatherDisplay:10.34,2013-09-09 13:46:00,
2013-09-09 09:52:00,51.8,33.2,30.38,NE,50,4.0,9.0,49,0.00,CLR,CLR,0.00,WeatherDisplay:10.34,2013-09-09 13:52:00,
2013-09-09 09:57:00,52.0,33.4,30.38,WNW,294,4.0,6.0,49,0.00,CLR,CLR,0.00,WeatherDisplay:10.34,2013-09-09 13:57:00,
2013-09-09 10:02:00,52.3,33.7,30.38,WNW,288,5.0,8.0,49,0.00,CLR,CLR,0.00,WeatherDisplay:10.34,2013-09-09 14:02:00,
2013-09-09 10:07:00,52.9,32.6,30.38,West,276,7.0,13.0,46,0.00,CLR,CLR,0.00,WeatherDisplay:10.34,2013-09-09 14:07:00,
2013-09-09 10:12:00,53.1,32.8,30.38,NNE,33,4.0,6.0,46,0.00,CLR,CLR,0.00,WeatherDisplay:10.34,2013-09-09 14:12:00,
2013-09-09 10:17:00,53.2,33.0,30.38,NE,41,5.0,6.0,46,0.00,CLR,CLR,0.00,WeatherDisplay:10.34,2013-09-09 14:17:00,
2013-09-09 10:22:00,53.4,33.1,30.38,SW,231,4.0,8.0,46,0.00,CLR,CLR,0.00,WeatherDisplay:10.34,2013-09-09 14:22:00,
2013-09-09 10:27:00,53.6,33.3,30.38,NNE,22,4.0,7.0,46,0.00,CLR,CLR,0.00,WeatherDisplay:10.34,2013-09-09 14:27:00,
2013-09-09 10:32:00,54.0,33.1,30.38,SSW,212,6.0,6.0,45,0.00,CLR,CLR,0.00,WeatherDisplay:10.34,2013-09-09 14:32:00,
2013-09-09 10:37:00,54.1,33.2,30.38,WSW,244,4.0,7.0,45,0.00,CLR,CLR,0.00,WeatherDisplay:10.34,2013-09-09 14:37:00,
2013-09-09 10:42:00,54.5,33.6,30.38,SSW,199,4.0,8.0,45,0.00,CLR,CLR,0.00,WeatherDisplay:10.34,2013-09-09 14:42:00,
2013-09-09 10:47:00,55.0,32.3,30.38,NE,34,6.0,7.0,42,0.00,CLR,CLR,0.00,WeatherDisplay:10.34,2013-09-09 14:47:00,
2013-09-09 10:52:00,55.0,31.7,30.38,NE,52,4.0,7.0,41,0.00,CLR,CLR,0.00,WeatherDisplay:10.34,2013-09-09 14:52:00,
2013-09-09 10:57:00,55.0,31.1,30.38,WSW,249,5.0,6.0,40,0.00,CLR,CLR,0.00,WeatherDisplay:10.34,2013-09-09 14:57:00,
2013-09-09 11:02:00,55.8,31.2,30.38,SSW,209,6.0,9.0,39,0.00,CLR,CLR,0.00,WeatherDisplay:10.34,2013-09-09 15:02:00,
2013-09-09 11:07:00,55.9,30.7,30.38,NNE,25,5.0,7.0,38,0.00,CLR,CLR,0.00,WeatherDisplay:10.34,2013-09-09 15:07:00,
2013-09-09 11:12:00,56.3,31.6,30.38,NE,48,5.0,7.0,39,0.00,CLR,CLR,0.00,WeatherDisplay:10.34,2013-09-09 15:12:00,
2013-09-09 11:17:00,56.7,32.0,30.38,WNW,282,5.0,10.0,39,0.00,CLR,CLR,0.00,WeatherDisplay:10.34,2013-09-09 15:17:00,
2013-09-09 11:22:00,57.0,32.9,30.38,WNW,301,5.0,12.0,40,0.00,CLR,CLR,0.00,WeatherDisplay:10.34,2013-09-09 15:22:00,
2013-09-09 11:27:00,57.0,31.6,30.38,ENE,78,3.0,9.0,38,0.00,CLR,CLR,0.00,WeatherDisplay:10.34,2013-09-09 15:27:00,
2013-09-09 11:32:00,57.2,31.8,30.35,NE,53,4.0,6.0,38,0.00,CLR,CLR,0.00,WeatherDisplay:10.34,2013-09-09 15:32:00,
2013-09-09 11:37:00,57.6,32.1,30.35,NNE,14,4.0,12.0,38,0.00,CLR,CLR,0.00,WeatherDisplay:10.34,2013-09-09 15:37:00,
2013-09-09 11:42:00,57.9,32.4,30.35,NE,47,4.0,7.0,38,0.00,CLR,CLR,0.00,WeatherDisplay:10.34,2013-09-09 15:42:00,
2013-09-09 11:47:00,58.1,31.3,30.35,WSW,252,4.0,9.0,36,0.00,CLR,CLR,0.00,WeatherDisplay:10.34,2013-09-09 15:47:00,
2013-09-09 11:52:00,58.3,31.4,30.35,West,280,7.0,13.0,36,0.00,CLR,CLR,0.00,WeatherDisplay:10.34,2013-09-09 15:52:00,
2013-09-09 11:57:00,58.5,31.6,30.35,WNW,290,5.0,8.0,36,0.00,CLR,CLR,0.00,WeatherDisplay:10.34,2013-09-09 15:57:00,
2013-09-09 12:02:00,59.0,32.1,30.35,NNE,12,4.0,6.0,36,0.00,CLR,CLR,0.00,WeatherDisplay:10.34,2013-09-09 16:02:00,
2013-09-09 12:07:00,59.2,31.5,30.35,West,268,5.0,10.0,35,0.00,CLR,CLR,0.00,WeatherDisplay:10.34,2013-09-09 16:07:00,
2013-09-09 12:12:00,59.2,31.5,30.35,WNW,295,4.0,9.0,35,0.00,CLR,CLR,0.00,WeatherDisplay:10.34,2013-09-09 16:12:00,
2013-09-09 12:17:00,59.4,31.7,30.35,WSW,253,7.0,9.0,35,0.00,CLR,CLR,0.00,WeatherDisplay:10.34,2013-09-09 16:17:00,
2013-09-09 12:22:00,59.5,32.5,30.35,WSW,254,5.0,6.0,36,0.00,CLR,CLR,0.00,WeatherDisplay:10.34,2013-09-09 16:22:00,
2013-09-09 12:27:00,59.9,32.2,30.35,NW,304,4.0,8.0,35,0.00,CLR,CLR,0.00,WeatherDisplay:10.34,2013-09-09 16:27:00,
2013-09-09 12:32:00,59.7,32.0,30.35,North,5,5.0,7.0,35,0.00,CLR,CLR,0.00,WeatherDisplay:10.34,2013-09-09 16:32:00,
2013-09-09 12:37:00,59.7,32.0,30.35,SW,233,3.0,9.0,35,0.00,CLR,CLR,0.00,WeatherDisplay:10.34,2013-09-09 16:37:00,
2013-09-09 12:42:00,59.9,31.4,30.35,North,351,7.0,10.0,34,0.00,CLR,CLR,0.00,WeatherDisplay:10.34,2013-09-09 16:42:00,
2013-09-09 12:47:00,59.9,32.2,30.35,North,4,4.0,6.0,35,0.00,CLR,CLR,0.00,WeatherDisplay:10.34,2013-09-09 16:47:00,
2013-09-09 12:52:00,59.9,32.2,30.35,West,265,3.0,8.0,35,0.00,CLR,CLR,0.00,WeatherDisplay:10.34,2013-09-09 16:52:00,
2013-09-09 12:57:00,60.1,32.3,30.35,NNE,13,4.0,6.0,35,0.00,CLR,CLR,0.00,WeatherDisplay:10.34,2013-09-09 16:57:00,
2013-09-09 13:02:00,60.3,32.5,30.32,SSW,209,4.0,6.0,35,0.00,CLR,CLR,0.00,WeatherDisplay:10.34,2013-09-09 17:02:00,
2013-09-09 13:07:00,60.4,32.6,30.32,WSW,251,3.0,5.0,35,0.00,CLR,CLR,0.00,WeatherDisplay:10.34,2013-09-09 17:07:00,
2013-09-09 13:12:00,60.6,32.8,30.31,NNE,21,4.0,6.0,35,0.00,CLR,CLR,0.00,WeatherDisplay:10.34,2013-09-09 17:12:00,
2013-09-09 13:17:00,60.4,32.6,30.32,West,264,5.0,5.0,35,0.00,CLR,CLR,0.00,WeatherDisplay:10.34,2013-09-09 17:17:00,
2013-09-09 13:22:00,60.4,32.6,30.32,SSW,213,5.0,8.0,35,0.00,CLR,CLR,0.00,WeatherDisplay:10.34,2013-09-09 17:22:00,
2013-09-09 13:27:00,61.0,33.8,30.31,NNW,335,4.0,6.0,36,0.00,CLR,CLR,0.00,WeatherDisplay:10.34,2013-09-09 17:27:00,
2013-09-09 13:32:00,61.5,33.6,30.31,NE,54,5.0,7.0,35,0.00,CLR,CLR,0.00,WeatherDisplay:10.34,2013-09-09 17:32:00,
2013-09-09 13:37:00,61.3,33.4,30.31,WSW,237,5.0,7.0,35,0.00,CLR,CLR,0.00,WeatherDisplay:10.34,2013-09-09 17:37:00,
2013-09-09 13:42:00,61.0,32.4,30.31,NNE,13,4.0,7.0,34,0.00,CLR,CLR,0.00,WeatherDisplay:10.34,2013-09-09 17:42:00,
2013-09-09 13:47:00,60.8,33.0,30.31,West,272,4.0,6.0,35,0.00,CLR,CLR,0.00,WeatherDisplay:10.34,2013-09-09 17:47:00,
2013-09-09 13:52:00,60.8,33.0,30.32,WSW,256,5.0,7.0,35,0.00,CLR,CLR,0.00,WeatherDisplay:10.34,2013-09-09 17:52:00,
2013-09-09 13:57:00,60.8,33.0,30.32,SW,219,4.0,7.0,35,0.00,CLR,CLR,0.00,WeatherDisplay:10.34,2013-09-09 17:57:00,
2013-09-09 14:02:00,60.8,33.0,30.32,West,261,4.0,7.0,35,0.00,CLR,CLR,0.00,WeatherDisplay:10.34,2013-09-09 18:02:00,
2013-09-09 14:07:00,60.8,32.2,30.32,WSW,257,6.0,8.0,34,0.00,CLR,CLR,0.00,WeatherDisplay:10.34,2013-09-09 18:07:00,
2013-09-09 14:12:00,61.2,33.3,30.32,NNE,29,6.0,8.0,35,0.00,CLR,CLR,0.00,WeatherDisplay:10.34,2013-09-09 18:12:00,
2013-09-09 14:17:00,61.3,33.4,30.31,SSE,157,5.0,7.0,35,0.00,CLR,CLR,0.00,WeatherDisplay:10.34,2013-09-09 18:17:00,
2013-09-09 14:22:00,61.7,33.0,30.31,East,87,4.0,7.0,34,0.00,CLR,CLR,0.00,WeatherDisplay:10.34,2013-09-09 18:22:00,
2013-09-09 14:27:00,62.2,33.5,30.31,SW,232,5.0,10.0,34,0.00,CLR,CLR,0.00,WeatherDisplay:10.34,2013-09-09 18:27:00,
2013-09-09 14:32:00,62.6,33.8,30.31,SW,231,4.0,5.0,34,0.00,CLR,CLR,0.00,WeatherDisplay:10.34,2013-09-09 18:32:00,
2013-09-09 14:37:00,62.8,33.2,30.31,NW,312,6.0,7.0,33,0.00,CLR,CLR,0.00,WeatherDisplay:10.34,2013-09-09 18:37:00,
2013-09-09 14:42:00,63.0,34.1,30.31,NNE,15,6.0,7.0,34,0.00,CLR,CLR,0.00,WeatherDisplay:10.34,2013-09-09 18:42:00,
2013-09-09 14:47:00,63.3,33.7,30.31,South,181,5.0,8.0,33,0.00,CLR,CLR,0.00,WeatherDisplay:10.34,2013-09-09 18:47:00,
2013-09-09 14:52:00,63.1,32.0,30.31,WSW,248,7.0,9.0,31,0.00,CLR,CLR,0.00,WeatherDisplay:10.34,2013-09-09 18:52:00,
2013-09-09 14:57:00,63.1,32.8,30.31,NW,320,7.0,10.0,32,0.00,CLR,CLR,0.00,WeatherDisplay:10.34,2013-09-09 18:57:00,
2013-09-09 15:02:00,63.0,32.6,30.31,East,79,4.0,7.0,32,0.00,CLR,CLR,0.00,WeatherDisplay:10.34,2013-09-09 19:02:00,
2013-09-09 15:07:00,62.8,32.5,30.31,NNE,19,4.0,6.0,32,0.00,CLR,CLR,0.00,WeatherDisplay:10.34,2013-09-09 19:07:00,
2013-09-09 15:12:00,62.4,32.9,30.31,SSW,206,5.0,8.0,33,0.00,CLR,CLR,0.00,WeatherDisplay:10.34,2013-09-09 19:12:00,
2013-09-09 15:17:00,62.2,32.8,30.31,WSW,244,4.0,6.0,33,0.00,CLR,CLR,0.00,WeatherDisplay:10.34,2013-09-09 19:17:00,
2013-09-09 15:22:00,62.1,33.3,30.31,WSW,252,4.0,6.0,34,0.00,CLR,CLR,0.00,WeatherDisplay:10.34,2013-09-09 19:22:00,
2013-09-09 15:27:00,62.2,33.5,30.31,NNW,342,5.0,8.0,34,0.00,CLR,CLR,0.00,WeatherDisplay:10.34,2013-09-09 19:27:00,
2013-09-09 15:32:00,62.4,33.7,30.31,SSW,194,4.0,12.0,34,0.00,CLR,CLR,0.00,WeatherDisplay:10.34,2013-09-09 19:32:00,
2013-09-09 15:37:00,62.4,33.7,30.31,WNW,291,5.0,9.0,34,0.00,CLR,CLR,0.00,WeatherDisplay:10.34,2013-09-09 19:37:00,
2013-09-09 15:42:00,62.4,34.4,30.31,WSW,248,3.0,5.0,35,0.00,CLR,CLR,0.00,WeatherDisplay:10.34,2013-09-09 19:42:00,
2013-09-09 15:47:00,62.4,34.4,30.31,WSW,244,0.0,3.0,35,0.00,CLR,CLR,0.00,WeatherDisplay:10.34,2013-09-09 19:47:00,
2013-09-09 15:52:00,62.6,34.5,30.31,West,268,3.0,7.0,35,0.00,CLR,CLR,0.00,WeatherDisplay:10.34,2013-09-09 19:52:00,
2013-09-09 15:57:00,62.6,35.3,30.31,SSW,197,5.0,7.0,36,0.00,CLR,CLR,0.00,WeatherDisplay:10.34,2013-09-09 19:57:00,
2013-09-09 16:02:00,62.6,34.5,30.31,North,8,4.0,9.0,35,0.00,CLR,CLR,0.00,WeatherDisplay:10.34,2013-09-09 20:02:00,
2013-09-09 16:07:00,62.6,34.5,30.31,North,351,4.0,6.0,35,0.00,CLR,CLR,0.00,WeatherDisplay:10.34,2013-09-09 20:07:00,
2013-09-09 16:12:00,62.4,35.1,30.31,WNW,301,4.0,5.0,36,0.00,CLR,CLR,0.00,WeatherDisplay:10.34,2013-09-09 20:12:00,
2013-09-09 16:17:00,62.4,35.8,30.28,SW,214,4.0,6.0,37,0.00,CLR,CLR,0.00,WeatherDisplay:10.34,2013-09-09 20:17:00,
2013-09-09 16:22:00,62.4,36.5,30.28,West,277,3.0,6.0,38,0.00,CLR,CLR,0.00,WeatherDisplay:10.34,2013-09-09 20:22:00,
2013-09-09 16:27:00,62.4,37.8,30.28,West,275,0.0,3.0,40,0.00,CLR,CLR,0.00,WeatherDisplay:10.34,2013-09-09 20:27:00,
2013-09-09 16:32:00,62.2,38.2,30.28,NW,309,0.0,0.0,41,0.00,CLR,CLR,0.00,WeatherDisplay:10.34,2013-09-09 20:32:00,
2013-09-09 16:37:00,62.2,38.8,30.28,SW,230,3.0,5.0,42,0.00,CLR,CLR,0.00,WeatherDisplay:10.34,2013-09-09 20:37:00,
2013-09-09 16:42:00,62.4,39.6,30.28,WSW,251,3.0,5.0,43,0.00,CLR,CLR,0.00,WeatherDisplay:10.34,2013-09-09 20:42:00,
2013-09-09 16:47:00,62.4,39.0,30.28,WNW,293,3.0,6.0,42,0.00,CLR,CLR,0.00,WeatherDisplay:10.34,2013-09-09 20:47:00,
2013-09-09 16:52:00,62.6,39.8,30.28,WSW,250,0.0,5.0,43,0.00,CLR,CLR,0.00,WeatherDisplay:10.34,2013-09-09 20:52:00,
2013-09-09 16:57:00,62.6,39.2,30.28,SW,229,3.0,5.0,42,0.00,CLR,CLR,0.00,WeatherDisplay:10.34,2013-09-09 20:57:00,
2013-09-09 17:02:00,62.8,40.5,30.28,WNW,301,0.0,5.0,44,0.00,CLR,CLR,0.00,WeatherDisplay:10.34,2013-09-09 21:02:00,
2013-09-09 17:07:00,62.8,39.9,30.28,South,182,4.0,5.0,43,0.00,CLR,CLR,0.00,WeatherDisplay:10.34,2013-09-09 21:07:00,
2013-09-09 17:12:00,62.8,39.9,30.28,NW,305,6.0,8.0,43,0.00,CLR,CLR,0.00,WeatherDisplay:10.34,2013-09-09 21:12:00,
2013-09-09 17:17:00,62.8,39.9,30.28,SE,146,4.0,5.0,43,0.00,CLR,CLR,0.00,WeatherDisplay:10.34,2013-09-09 21:17:00,
2013-09-09 17:22:00,62.8,36.1,30.28,West,274,4.0,6.0,37,0.00,CLR,CLR,0.00,WeatherDisplay:10.34,2013-09-09 21:22:00,
2013-09-09 17:27:00,63.0,35.6,30.28,SW,224,3.0,7.0,36,0.00,CLR,CLR,0.00,WeatherDisplay:10.34,2013-09-09 21:27:00,
2013-09-09 17:32:00,63.0,36.9,30.28,WNW,284,3.0,3.0,38,0.00,CLR,CLR,0.00,WeatherDisplay:10.34,2013-09-09 21:32:00,
2013-09-09 17:37:00,62.6,37.3,30.28,West,268,4.0,7.0,39,0.00,CLR,CLR,0.00,WeatherDisplay:10.34,2013-09-09 21:37:00,
2013-09-09 17:42:00,62.2,37.0,30.28,WNW,300,3.0,3.0,39,0.00,CLR,CLR,0.00,WeatherDisplay:10.34,2013-09-09 21:42:00,
2013-09-09 17:47:00,61.9,37.9,30.28,WSW,239,3.0,12.0,41,0.00,CLR,CLR,0.00,WeatherDisplay:10.34,2013-09-09 21:47:00,
2013-09-09 17:52:00,61.7,35.8,30.28,West,280,4.0,6.0,38,0.00,CLR,CLR,0.00,WeatherDisplay:10.34,2013-09-09 21:52:00,
2013-09-09 17:57:00,61.5,37.0,30.28,West,280,4.0,5.0,40,0.00,CLR,CLR,0.00,WeatherDisplay:10.34,2013-09-09 21:57:00,
2013-09-09 18:02:00,61.2,37.3,30.28,West,269,4.0,8.0,41,0.00,CLR,CLR,0.00,WeatherDisplay:10.34,2013-09-09 22:02:00,
2013-09-09 18:07:00,60.8,38.1,30.28,WNW,290,4.0,6.0,43,0.00,CLR,CLR,0.00,WeatherDisplay:10.34,2013-09-09 22:07:00,
2013-09-09 18:12:00,60.4,38.4,30.28,WSW,243,0.0,3.0,44,0.00,CLR,CLR,0.00,WeatherDisplay:10.34,2013-09-09 22:12:00,
2013-09-09 18:17:00,60.3,38.2,30.29,West,260,3.0,6.0,44,0.00,CLR,CLR,0.00,WeatherDisplay:10.34,2013-09-09 22:17:00,
2013-09-09 18:22:00,60.1,38.7,30.29,WSW,256,0.0,3.0,45,0.00,CLR,CLR,0.00,WeatherDisplay:10.34,2013-09-09 22:22:00,
2013-09-09 18:27:00,59.7,39.4,30.29,WNW,294,0.0,3.0,47,0.00,CLR,CLR,0.00,WeatherDisplay:10.34,2013-09-09 22:27:00,
2013-09-09 18:32:00,59.5,38.7,30.29,West,267,4.0,5.0,46,0.00,CLR,CLR,0.00,WeatherDisplay:10.34,2013-09-09 22:32:00,
2013-09-09 18:37:00,59.5,38.2,30.29,West,279,4.0,6.0,45,0.00,CLR,CLR,0.00,WeatherDisplay:10.34,2013-09-09 22:37:00,
2013-09-09 18:42:00,59.2,38.4,30.29,West,279,0.0,3.0,46,0.00,CLR,CLR,0.00,WeatherDisplay:10.34,2013-09-09 22:42:00,
2013-09-09 18:47:00,59.0,38.8,30.29,West,265,0.0,3.0,47,0.00,CLR,CLR,0.00,WeatherDisplay:10.34,2013-09-09 22:47:00,
2013-09-09 18:52:00,58.6,39.0,30.29,SW,218,3.0,7.0,48,0.00,CLR,CLR,0.00,WeatherDisplay:10.34,2013-09-09 22:52:00,
2013-09-09 18:57:00,58.5,38.8,30.29,WNW,290,0.0,2.0,48,0.00,CLR,CLR,0.00,WeatherDisplay:10.34,2013-09-09 22:57:00,
2013-09-09 19:02:00,58.1,39.0,30.29,West,259,3.0,5.0,49,0.00,CLR,CLR,0.00,WeatherDisplay:10.34,2013-09-09 23:02:00,
2013-09-09 19:07:00,58.1,39.0,30.29,West,261,4.0,6.0,49,0.00,CLR,CLR,0.00,WeatherDisplay:10.34,2013-09-09 23:07:00,
2013-09-09 19:12:00,57.9,38.9,30.29,WNW,285,3.0,6.0,49,0.00,CLR,CLR,0.00,WeatherDisplay:10.34,2013-09-09 23:12:00,
2013-09-09 19:17:00,57.7,38.7,30.29,WNW,296,4.0,6.0,49,0.00,CLR,CLR,0.00,WeatherDisplay:10.34,2013-09-09 23:17:00,
2013-09-09 19:22:00,57.7,38.2,30.29,SSW,198,0.0,5.0,48,0.00,CLR,CLR,0.00,WeatherDisplay:10.34,2013-09-09 23:22:00,
2013-09-09 19:27:00,57.6,38.5,30.29,SSW,198,0.0,5.0,49,0.00,CLR,CLR,0.00,WeatherDisplay:10.34,2013-09-09 23:27:00,
2013-09-09 19:32:00,57.4,38.4,30.29,SSW,197,0.0,0.0,49,0.00,CLR,CLR,0.00,WeatherDisplay:10.34,2013-09-09 23:32:00,
2013-09-09 19:37:00,57.4,38.4,30.29,SW,229,3.0,5.0,49,0.00,CLR,CLR,0.00,WeatherDisplay:10.34,2013-09-09 23:37:00,
2013-09-09 19:42:00,57.4,38.4,30.29,SW,217,3.0,3.0,49,0.00,CLR,CLR,0.00,WeatherDisplay:10.34,2013-09-09 23:42:00,
2013-09-09 19:47:00,57.2,38.2,30.29,SW,236,0.0,3.0,49,0.00,CLR,CLR,0.00,WeatherDisplay:10.34,2013-09-09 23:47:00,
2013-09-09 19:52:00,57.2,38.7,30.29,West,273,0.0,6.0,50,0.00,CLR,CLR,0.00,WeatherDisplay:10.34,2013-09-09 23:52:00,
2013-09-09 19:57:00,57.2,38.7,30.28,West,259,4.0,6.0,50,0.00,CLR,CLR,0.00,WeatherDisplay:10.34,2013-09-09 23:57:00,
2013-09-09 20:02:00,57.2,38.7,30.28,NW,316,0.0,3.0,50,0.00,CLR,CLR,0.00,WeatherDisplay:10.34,2013-09-10 00:02:00,
2013-09-09 20:07:00,57.2,38.7,30.28,West,259,4.0,6.0,50,0.00,CLR,CLR,0.00,WeatherDisplay:10.34,2013-09-10 00:07:00,
2013-09-09 20:12:00,57.2,39.2,30.28,WNW,285,3.0,6.0,51,0.00,CLR,CLR,0.00,WeatherDisplay:10.34,2013-09-10 00:12:00,
2013-09-09 20:17:00,57.0,39.1,30.28,West,275,0.0,3.0,51,0.00,CLR,CLR,0.00,WeatherDisplay:10.34,2013-09-10 00:17:00,
2013-09-09 20:22:00,56.8,39.4,30.28,SW,223,0.0,6.0,52,0.00,CLR,CLR,0.00,WeatherDisplay:10.34,2013-09-10 00:22:00,
2013-09-09 20:27:00,56.8,39.4,30.28,SW,220,3.0,9.0,52,0.00,CLR,CLR,0.00,WeatherDisplay:10.34,2013-09-10 00:27:00,
2013-09-09 20:32:00,57.2,39.7,30.28,South,170,0.0,3.0,52,0.00,CLR,CLR,0.00,WeatherDisplay:10.34,2013-09-10 00:32:00,
2013-09-09 20:37:00,57.4,39.4,30.28,West,267,3.0,7.0,51,0.00,CLR,CLR,0.00,WeatherDisplay:10.34,2013-09-10 00:37:00,
2013-09-09 20:42:00,57.6,39.0,30.28,West,264,4.0,6.0,50,0.00,CLR,CLR,0.00,WeatherDisplay:10.34,2013-09-10 00:42:00,
2013-09-09 20:47:00,57.7,39.2,30.28,NNE,22,0.0,2.0,50,0.00,CLR,CLR,0.00,WeatherDisplay:10.34,2013-09-10 00:47:00,
2013-09-09 20:52:00,57.9,38.9,30.28,WNW,302,4.0,7.0,49,0.00,CLR,CLR,0.00,WeatherDisplay:10.34,2013-09-10 00:52:00,
2013-09-09 20:57:00,57.9,38.9,30.28,North,351,4.0,7.0,49,0.00,CLR,CLR,0.00,WeatherDisplay:10.34,2013-09-10 00:57:00,
2013-09-09 21:02:00,58.1,39.0,30.28,West,272,0.0,5.0,49,0.00,CLR,CLR,0.00,WeatherDisplay:10.34,2013-09-10 01:02:00,
2013-09-09 21:07:00,58.1,39.0,30.28,WNW,284,4.0,5.0,49,0.00,CLR,CLR,0.00,WeatherDisplay:10.34,2013-09-10 01:07:00,
2013-09-09 21:12:00,58.1,39.5,30.28,SSW,195,5.0,6.0,50,0.00,CLR,CLR,0.00,WeatherDisplay:10.34,2013-09-10 01:12:00,
2013-09-09 21:17:00,57.9,39.9,30.28,WNW,301,4.0,7.0,51,0.00,CLR,CLR,0.00,WeatherDisplay:10.34,2013-09-10 01:17:00,
2013-09-09 21:22:00,57.9,39.9,30.28,SSE,148,3.0,5.0,51,0.00,CLR,CLR,0.00,WeatherDisplay:10.34,2013-09-10 01:22:00,
2013-09-09 21:27:00,57.9,40.4,30.28,West,281,4.0,9.0,52,0.00,CLR,CLR,0.00,WeatherDisplay:10.34,2013-09-10 01:27:00,
2013-09-09 21:32:00,57.9,40.4,30.28,NNE,13,3.0,6.0,52,0.00,CLR,CLR,0.00,WeatherDisplay:10.34,2013-09-10 01:32:00,
2013-09-09 21:37:00,57.9,40.4,30.28,West,274,3.0,6.0,52,0.00,CLR,CLR,0.00,WeatherDisplay:10.34,2013-09-10 01:37:00,
2013-09-09 21:42:00,57.7,40.2,30.28,WSW,258,3.0,6.0,52,0.00,CLR,CLR,0.00,WeatherDisplay:10.34,2013-09-10 01:42:00,
2013-09-09 21:47:00,57.7,40.2,30.28,West,276,4.0,6.0,52,0.00,CLR,CLR,0.00,WeatherDisplay:10.34,2013-09-10 01:47:00,
2013-09-09 21:52:00,57.7,40.7,30.28,SW,227,4.0,8.0,53,0.00,CLR,CLR,0.00,WeatherDisplay:10.34,2013-09-10 01:52:00,
2013-09-09 21:57:00,57.7,40.7,30.28,West,259,3.0,5.0,53,0.00,CLR,CLR,0.00,WeatherDisplay:10.34,2013-09-10 01:57:00,
2013-09-09 22:02:00,57.7,40.7,30.28,NW,321,0.0,2.0,53,0.00,CLR,CLR,0.00,WeatherDisplay:10.34,2013-09-10 02:02:00,
2013-09-09 22:07:00,57.6,40.5,30.28,NW,319,0.0,0.0,53,0.00,CLR,CLR,0.00,WeatherDisplay:10.34,2013-09-10 02:07:00,
2013-09-09 22:12:00,57.6,40.5,30.28,NW,318,0.0,0.0,53,0.00,CLR,CLR,0.00,WeatherDisplay:10.34,2013-09-10 02:12:00,
2013-09-09 22:17:00,57.6,41.0,30.28,NW,313,0.0,0.0,54,0.00,CLR,CLR,0.00,WeatherDisplay:10.34,2013-09-10 02:17:00,
2013-09-09 22:22:00,57.4,40.9,30.28,NW,313,0.0,0.0,54,0.00,CLR,CLR,0.00,WeatherDisplay:10.34,2013-09-10 02:22:00,
2013-09-09 22:27:00,57.2,41.2,30.28,NW,313,0.0,0.0,55,0.00,CLR,CLR,0.00,WeatherDisplay:10.34,2013-09-10 02:27:00,
2013-09-09 22:32:00,57.0,41.5,30.28,NW,313,0.0,0.0,56,0.00,CLR,CLR,0.00,WeatherDisplay:10.34,2013-09-10 02:32:00,
2013-09-09 22:37:00,56.8,41.8,30.28,NW,313,0.0,0.0,57,0.00,CLR,CLR,0.00,WeatherDisplay:10.34,2013-09-10 02:37:00,
2013-09-09 22:42:00,56.7,42.0,30.28,NW,313,0.0,0.0,58,0.00,CLR,CLR,0.00,WeatherDisplay:10.34,2013-09-10 02:42:00,
2013-09-09 22:47:00,56.5,41.9,30.28,NW,313,0.0,0.0,58,0.00,CLR,CLR,0.00,WeatherDisplay:10.34,2013-09-10 02:47:00,
2013-09-09 22:52:00,56.3,42.6,30.28,NW,313,0.0,0.0,60,0.00,CLR,CLR,0.00,WeatherDisplay:10.34,2013-09-10 02:52:00,
2013-09-09 22:57:00,56.3,42.6,30.28,NW,310,0.0,0.0,60,0.00,CLR,CLR,0.00,WeatherDisplay:10.34,2013-09-10 02:57:00,
2013-09-09 23:02:00,56.3,42.6,30.28,NW,310,0.0,0.0,60,0.00,CLR,CLR,0.00,WeatherDisplay:10.34,2013-09-10 03:02:00,
2013-09-09 23:07:00,56.1,43.3,30.28,NW,310,0.0,0.0,62,0.00,CLR,CLR,0.00,WeatherDisplay:10.34,2013-09-10 03:07:00,
2013-09-09 23:12:00,55.8,43.8,30.28,NW,310,0.0,0.0,64,0.00,CLR,CLR,0.00,WeatherDisplay:10.34,2013-09-10 03:12:00,
2013-09-09 23:17:00,55.6,44.0,30.28,NW,310,0.0,0.0,65,0.00,CLR,CLR,0.00,WeatherDisplay:10.34,2013-09-10 03:17:00,
2013-09-09 23:22:00,55.6,44.0,30.28,NW,309,0.0,0.0,65,0.00,CLR,CLR,0.00,WeatherDisplay:10.34,2013-09-10 03:22:00,
2013-09-09 23:27:00,55.6,44.0,30.27,NW,309,0.0,0.0,65,0.00,CLR,CLR,0.00,WeatherDisplay:10.34,2013-09-10 03:27:00,
2013-09-09 23:32:00,55.6,44.4,30.27,NW,309,0.0,0.0,66,0.00,CLR,CLR,0.00,WeatherDisplay:10.34,2013-09-10 03:32:00,
2013-09-09 23:37:00,55.6,44.4,30.27,NW,309,0.0,0.0,66,0.00,CLR,CLR,0.00,WeatherDisplay:10.34,2013-09-10 03:37:00,
2013-09-09 23:42:00,55.6,44.4,30.27,NW,309,0.0,0.0,66,0.00,CLR,CLR,0.00,WeatherDisplay:10.34,2013-09-10 03:42:00,
2013-09-09 23:47:00,55.6,44.8,30.27,NW,309,0.0,0.0,67,0.00,CLR,CLR,0.00,WeatherDisplay:10.34,2013-09-10 03:47:00,
2013-09-09 23:52:00,55.4,44.6,30.27,NW,309,0.0,0.0,67,0.00,CLR,CLR,0.00,WeatherDisplay:10.34,2013-09-10 03:52:00,
2013-09-09 23:57:00,55.2,44.4,30.27,NW,309,0.0,0.0,67,0.00,CLR,CLR,0.00,WeatherDisplay:10.34,2013-09-10 03:57:00,